STARLINK-37247, 69835

Orbit data source: Space-Track

STARLINK-37247, 69835 is a payload satellite owned by SpaceX/Seattle (US) in LEO that was launched on Sun, 05 Jul 2026 UTC via an FALCON 9 launch vehicle from the Air Force Eastern Test Range (AFETR). Payload-class satellites include a variety of spacecraft equipped with specific instruments for various scientific and technological missions. These include communications satellites like Starlink; space stations such as the ISS; scientific satellites like the Hubble; Earth observation satellites from companies like Planet Labs, Umbra, and HawkEye 360; GPS; miniature CubeSats for education and research; and military/defense satellites.

Loading next visibility...
Identifier
69835, 2026-154S
Orbit
LEO
Country
Flag of USUS
Related business
Manufacturer
SpaceX/Seattle
Mission
Operational spacecraft
Bus & Motor
STARLINK V2MO, Unknown motor
Mass
575 kg wet, ~530 kg dry
Launch date (UTC)
2026-07-05 (2 months ago)
Launch vehicle
FALCON 9
Launch site
Air Force Eastern Test Range (AFETR)
Object type
Payload
Rocket body
Debris
Shape & HBR
BOX + PAN, 17.7 m
Radar Cross Section
Large (>1 m²)

Expand to show TLE details & history
Last TLE update: 23 hours ago

TLE from 23 hours ago
0 STARLINK-37247
1 69835U 26154S   26235.91125433  .00034798  00000-0  10029-2 0  9990
2 69835  53.1610 100.6194 0001108  87.3184 272.7946 15.35430130  9002
Epoch: 2026-08-23T21:52Z
TLE epoch observation values (Epoch: 2026-08-23T21:52:12.374Z)
Latitude
0.00001°
Longitude
160.36733°
Altitude
460.508 km
Speed
7.638 km/s
True Right ascension
06h 42m 28s
True Declination
0° 00' 00"
Sunlit
Object was in daylight at epoch
Visualization orbit readout
Latitude
Unknown
Longitude
Unknown
Altitude
Unknown
Speed
Unknown
Apparent Right ascension
Unknown
Apparent Declination
Unknown
Sunlit
N/A
Visualization observer readout
Local Sidereal Time
12:10:03
Azimuth
Unknown
Elevation
Unknown
Doppler factor
Unknown
Orbital elements
Apogee altitude
460.658 km
Perigee altitude
459.142 km
Semi-major axis
6,838.037 km
Eccentricity
0.00011
Inclination
53.161°
RAAN
100.6194°
Arg. of periapsis
87.3184°
True anomaly
272.78192°
Mean anomaly
272.7946°
Eccentric anomaly
272.78826°
Mean motion
3.83836 °/min
Orbital period
93.79 mins
BSTAR
0.0010029
Loading maneuver chart data...
Computing Atmospheric mass density...
Loading historical data...
Loading historical data...
Loading historical data...
Loading historical data...
Loading historical data...
Loading historical data...
Loading historical data...

Documentation

Showing up to 5 results
|